www.pogodaiklimat.ru

Погода и климат >> Архив погоды >> Казахстан >> Каукей


ПОГОДА в Каукее

  • Прогноз погоды в Каукее
  • Монитор погоды в Каукее

АРХИВ ПОГОДЫ в Каукее

Время (UTC), дата Ветер
(напр.,м/с)
 
Видим.   Явления Облачность Т
(С)
Тd
(С)
f
(%)
Тe
(С)
Тes
(С)
Комфортность P
(гПа)
Po
(гПа)
Тmin
(С)
Tmax
(С)
R
(мм)
R24
(мм)
S
(см)
03 14.07 ЮВ 3 20 км ясно +31.0 +9.7 27 +31 +34 жарко 1001.8 994.9
06 14.07 Ю 3 20 км ясно +40.2 +10.0 16 +39 +52 опасность
солнечного
удара
1002.0 995.3 +21.5
09 14.07 В 4 20 км ясно +42.7 +9.0 13 +41 +52 опасность
перегрева
1001.4 994.8
21 14.07 ЮВ 3 н/о ясно +28.0 +9.0 30 +28 +28 жарко 1001.4 994.5
00 15.07 ЮЗ 4 20 км ясно +24.7 +10.0 39 +26 +26 жарко 1001.8 994.8
03 15.07 СЗ 3 20 км ясно +29.0 +9.5 30 +29 +33 жарко 1002.6 995.7
06 15.07 СЗ 6 20 км ясно +34.4 +12.4 26 +34 +40 очень
жарко
1003.9 996.1 +24.6
15 15.07 С 6 20 км 4/0
[Ac lent]
+34.2 +10.3 23 +33 +33 жарко 1002.7 995.9 +39.5
18 15.07 СЗ 7 н/о 4/0
[Ac lent]
+30.0 +9.7 28 +30 +30 жарко 1003.2 996.3 +39.5
21 15.07 СЗ 5 н/о ясно +26.4 +14.4 48 +29 +29 жарко 1003.6 996.6
00 16.07 С 5 20 км ясно +23.0 +12.3 51 +26 +26 жарко 1004.7 997.7
03 16.07 С 8 20 км ясно +25.4 +13.0 46 +27 +28 жарко 1006.0 999.0
06 16.07 С 8 20 км ясно +29.6 +12.7 35 +31 +33 жарко 1006.5 999.6 +22.4
09 16.07 С 9 20 км ясно +33.2 +10.7 25 +33 +34 жарко 1005.7 998.9
12 16.07 С 4 н/о ясно +25.6 +8.6 34 +26 +31 жарко 1006.2 999.3 +36.0
15 16.07 С 5 20 км ясно +33.4 +10.7 25 +33 +33 жарко 1005.1 998.3 +36.0
18 16.07 С 4 н/о ясно +25.6 +8.6 34 +26 +26 жарко 1006.2 999.3 +36.0
21 16.07 С 4 н/о ясно +22.0 +7.4 39 +23 +23 комфорт 1007.1 1000.1
00 17.07 С 4 20 км ясно +20.7 +7.0 41 +22 +22 комфорт 1006.9 999.7
03 17.07 СВ 4 20 км ясно +26.6 +7.3 29 +26 +29 жарко 1007.4 1000.5
06 17.07 СВ 7 20 км ясно +33.2 +5.0 17 +31 +35 жарко 1007.5 1000.7 +20.5
09 17.07 С 7 20 км ясно +36.0 +5.1 15 +33 +38 жарко 1007.2 1000.4
12 17.07 С 7 20 км 4/0
[Ci sp]
+37.0 +6.4 15 +34 +36 очень
жарко
1005.7 998.9
15 17.07 С 4 20 км 4/0
[Ci sp]
+33.7 +7.0 19 +32 +32 жарко 1006.4 999.6 +38.1
18 17.07 С 4 н/о ясно +27.4 +6.8 27 +27 +27 жарко 1006.6 999.7 +38.1
21 17.07 С 4 н/о ясно +24.7 +6.7 32 +25 +25 комфорт 1007.0 1000.0
00 18.07 С 3 20 км ясно +21.0 +9.4 47 +23 +23 комфорт 1006.3 999.1
03 18.07 СВ 4 20 км ясно +25.0 +7.7 33 +25 +28 комфорт 1006.5 999.5
06 18.07 С 4 20 км ясно +33.2 +11.0 26 +33 +43 жарко 1007.2 1000.4 +20.8
12 18.07 СЗ 6 20 км 6/0
[Ci sp]
+39.0 +10.0 18 +38 +40 очень
жарко
1005.5 998.7
15 18.07 СЗ 4 20 км ясно +34.5 +10.3 23 +34 +34 очень
жарко
1005.3 998.5 +40.5
18 18.07 С 1 н/о 6/0
[Ci sp]
+28.5 +9.0 29 +28 +28 жарко 1005.7 998.8 +40.5
21 18.07 С 2 н/о ясно +25.3 +8.6 35 +26 +26 жарко 1005.9 998.9
00 19.07 С 2 20 км ясно +22.3 +9.8 45 +24 +24 комфорт 1006.2 999.2
03 19.07 СВ 3 20 км ясно +28.0 +11.0 35 +29 +32 жарко 1006.7 999.8
06 19.07 В 3 20 км ясно +39.4 +8.5 15 +37 +50 очень
жарко
1006.5 999.8 +22.1
12 19.07 С 2 20 км 8/8 600 м
[Sc]
+41.0 +11.3 17 +40 +41 очень
жарко
1004.7 998.0
18 19.07 В 4 н/о 6/6 600 м
[Sc]
+36.4 +8.8 19 +35 +35 очень
жарко
1005.0 998.3 +43.2
21 19.07 ЮВ 4 н/о ясно +33.0 +8.6 22 +32 +32 жарко 1005.0 998.2
03 20.07 ЮВ 5 20 км 6/6 600 м
[Sc]
+31.6 +9.3 25 +31 +32 жарко 1006.5 999.7

 

Местоположение метеостанции Каукей (Кызылординская область, Казахстан): широта 45.20 долгота 61.70 высота над уровнем моря 60 м.

В архиве по умолчанию представлена погода в Каукее за последнюю неделю. Архивные данные за месяц целиком и за предыдущие месяцы, начиная с января 2011 года, Вы можете получить, выбрав интересующий диапазон дат из раскрывающегося списка и нажав кнопку "Ввод!".


*Определитесь, кто Вы:
робот инопланетянин человек

Внимание! Время в таблицах - всемирное. Для получения местного времени необходимо прибавить поправку, которая равна 5 ч.

Смотрите также архив погоды в соседних городах и на ближайших метеорологических станциях:

Погода в Казалинске (Кызылординская область, Казахстан) (71 км)
Погода в Караке (Кызылординская область, Казахстан) (121 км)
Погода в Акае (Кызылординская область, Казахстан) (131 км)
Погода в Ширик-Рабате (Кызылординская область, Казахстан) (158 км)
Погода в Аральске (Кызылординская область, Казахстан) (176 км)
Погода в Жосалы (Кызылординская область, Казахстан) (189 км)
Погода в Жалагаше (Кызылординская область, Казахстан) (234 км)
Погода в Аяккуме (Актюбинская область, Казахстан) (259 км)
Погода в Муйнаке (Каракалпакстан, Узбекистан) (286 км)
Погода в Чимбае (Каракалпакстан, Узбекистан) (292 км)

Пояснения к столбцам:

Ветер - указаны скорость ветра в м/с - средняя за 10 мин, порывы в срок и между сроками (в фигурных скобках) и направление, откуда дует ветер: С - северный, СВ - северо-восточный, В - восточный, ЮВ - юго-восточный, Ю - южный, ЮЗ - юго-западный, З - западный, СЗ - северо-западный.
Видимость - горизонтальная дальность видимости в метрах или километрах. При видимости от 1 до 10 км при отсутствии осадков обычно наблюдается дымка, при ухудшении видимости до 1 км и менее - туман. В сухую погоду видимость может ухудшаться дымом, пылью или мглою.
Явления - указаны атмосферные явления, наблюдавшиеся в срок или в последний час перед сроком; фигурными скобками обозначены явления, наблюдавшиеся между сроками (за 1-3 часа до срока); квадратными скобками обозначены град или гололедные отложения с указанием их диаметра в мм.
Облачность - указаны через наклонную черту общая и нижняя облачность в баллах и высота нижней границы облаков в метрах; квадратными скобками обозначены формы облаков: Ci - перистые, Cs - перисто-слоистые, Cc - перисто-кучевые, Ac - высококучевые, As - высокослоистые, Sc - слоисто-кучевые, Ns - слоисто-дождевые, Cu - кучевые, Cb - кучево-дождевые. Подробнее классификацию облаков см. в Атласе облаков (PDF).
T - Температура воздуха - температура, измеренная на высоте 2 м над землей.
Td - Температура точки росы - температура, при понижении до которой содержащийся в воздухе водяной пар достигнет насыщения.
f - Относительная влажность воздуха - влажноcть воздуха, измеренная на высоте 2 м над землей.
Te - Эффективная температура - температура, которую ощущает одетый по сезону человек в тени. Характеристика душности погоды. При расчете учитывается влияние влажности воздуха и скорости ветра на теплоощущения человека.
Tes - Эффективная температура на солнце - температура, которую ощущает человек, с поправкой на солнечный нагрев. Характеристика знойности погоды. Зависит от высоты солнца над горизонтом, облачности и скорости ветра. Ночью, в пасмурную погоду, а также при ветре 12 м/с и более поправка равна нулю.
P - Атмосферное давление - приведенное к уровню моря атмосферное давление.
Po - Атмосферное давление - измеренное на уровне метеостанции атмосферное давление.
Tmin - Минимальная температура - минимум температуры воздуха на высоте 2 м над землей.
Tmax - Максимальная температура - максимум температуры воздуха на высоте 2 м над землей.
R - Количество осадков - Количество выпавших осадков за период времени, мм. При наведении курсора мыши на число - период времени, за который выпало указанное количество осадков.
R24 - Количество осадков - Количество выпавших осадков за 24 часа, мм.
S - Снежный покров - Высота снежного покрова, см. При наведении курсора мыши на число - состояние снежного покрова и степень покрытия местности в баллах.